This is the latest recevied weather packets stored in our database for station/object N4QEP-13. If no packets are shown the sender has not sent any weather packets the latest 10 day(s).
| Time | Temp. | Humidity | Pressure | Rain* | Wind** | Luminosity | Snow |
|---|---|---|---|---|---|---|---|
| 1777998654 | 26.11° C | 55% | 1016.3 hPa | 0 mm | - | - | - |
| 1777997755 | 25° C | 55% | 1016.5 hPa | 0 mm | - | - | - |
| 1777996851 | 25° C | 54% | 1016.6 hPa | 0 mm | - | - | - |
| 1777995972 | 25° C | 52% | 1016.6 hPa | 0 mm | - | - | - |
| 1777995050 | 24.44° C | 51% | 1016.5 hPa | 0 mm | - | - | - |
| 1777995049 | 24.44° C | 51% | 1016.5 hPa | 0 mm | - | - | - |
| 1777994144 | 24.44° C | 51% | 1016.3 hPa | 0 mm | - | - | - |
| 1777993251 | 23.33° C | 49% | 1016.4 hPa | 0 mm | - | - | - |
| 1777992338 | 22.22° C | 52% | 1016.6 hPa | 0 mm | - | - | - |
| 1777991435 | 21.67° C | 55% | 1016.5 hPa | 0 mm | - | - | - |
| 1777990525 | 20.56° C | 56% | 1016.4 hPa | 0 mm | - | - | - |
| 1777989622 | 20° C | 61% | 1016.5 hPa | 0 mm | - | - | - |
| 1777988722 | 18.33° C | 63% | 1016.5 hPa | 0 mm | - | - | - |
| 1777987814 | 17.22° C | 64% | 1016.5 hPa | 0 mm | - | - | - |
| 1777986908 | 16.67° C | 64% | 1016.2 hPa | 0 mm | - | - | - |
| 1777986008 | 15.56° C | 65% | 1016.1 hPa | 0 mm | - | - | - |
| 1777985161 | 15° C | 66% | 1016 hPa | 0 mm | - | - | - |
| 1777984259 | 13.33° C | 69% | 1016 hPa | 0 mm | - | - | - |
| 1777983354 | 12.22° C | 69% | 1015.9 hPa | 0 mm | - | - | - |
| 1777982453 | 12.22° C | 70% | 1015.9 hPa | 0 mm | - | - | - |
| 1777981556 | 11.67° C | 73% | 1015.7 hPa | 0 mm | - | - | - |
| 1777980654 | 11.11° C | 76% | 1015.7 hPa | 0 mm | - | - | - |
| 1777979747 | 11.11° C | 77% | 1015.6 hPa | 0 mm | - | - | - |
| 1777978847 | 11.11° C | 77% | 1015.5 hPa | 0 mm | - | - | - |
| 1777977945 | 11.11° C | 77% | 1015.3 hPa | 0 mm | - | - | - |
* Rain latest hour (hover to see other rain measurements)
** Current wind speed in m/s (hover to see current wind gust speed)